Regional Weather Roundup
Issued by NWS Albany, NY

Home | Current Version | Previous Version | Text Only | Print | Product List | Glossary On
Versions: 1 2 3 4 5 6 7 8 9 10 11 12 13 14 15 16 17 18 19 20 21 22 23 24 25 26 27 28 29 30 31 32 33 34 35 36 37 38 39 40 41 42 43 44 45 46 47 48 49 50
000
ASUS41 KALY 250210
RWRALY

NEW YORK STATE HOURLY WEATHER ROUNDUP
NATIONAL WEATHER SERVICE ALBANY NY
1000 PM EDT FRI MAR 24 2017

NOTE: "FAIR" INDICATES FEW OR NO CLOUDS BELOW 12,000 FEET WITH NO
SIGNIFICANT WEATHER AND/OR NO OBSTRUCTIONS TO VISIBILITY.

NYZ032-033-038>043-046>054-057>066-NYZ062>081-082-084-250300-
EAST


CITY           SKY/WX    TMP DP  RH WIND       PRES   REMARKS
ALBANY         LGT RAIN  42  33  70 S7        30.07R
GLENS FALLS    LGT RAIN  33  31  92 CALM      30.09R FOG
POUGHKEEPSIE   MOCLDY    35  31  85 CALM      30.11F
NEWBURGH       CLOUDY    41  34  75 CALM      30.13S
MONTGOMERY     PTCLDY    36  31  82 CALM      30.10F
WHITE PLAINS   PTCLDY    48  33  56 CALM      30.13S
ISLIP          MOCLDY    44  39  82 SW6       30.16R
NEW YORK CITY  MOCLDY    56  33  42 W12       30.16R
CENTRAL PARK   CLOUDY    54  32  43 VRB5G18   30.18R
$$

NYZ005>009-017-018-044>046-055-056-250300-
CENTRAL


CITY           SKY/WX    TMP DP  RH WIND       PRES   REMARKS
FULTON         CLOUDY    42  38  85 NE6       30.06R
SYRACUSE       CLOUDY    40  37  89 CALM      30.06R
ROME           CLOUDY    36  35  96 CALM      30.07R
ELMIRA         CLOUDY    48  39  71 W3        30.03S
BINGHAMTON     CLOUDY    44  36  73 SW8       30.04R
MONTICELLO     CLOUDY    32  32 100 CALM      30.11S
$$

NYZ026>034-041>043-087-250300-
NORTH


CITY           SKY/WX    TMP DP  RH WIND       PRES   REMARKS
WATERTOWN      LGT RAIN  37  37 100 NE5       30.08R VSB 3/4 WCI  33
FORT DRUM      NOT AVBL
MASSENA        LGT SNOW  33  32  96 CALM      30.12R FOG
SARANAC LAKE   LGT SNOW  34  34 100 VRB5      30.02R FOG     WCI  30
PLATTSBURGH    LGT SNOW  33  31  92 N3        30.07R FOG
$$

NYZ001>004-010>016-019>021-085-250300-
WEST


CITY           SKY/WX    TMP DP  RH WIND       PRES   REMARKS
NIAGARA FALLS  MOCLDY    46  38  73 NE17      30.07R
BUFFALO        LGT RAIN  47  41  80 NE10      30.04R
DUNKIRK        CLOUDY    44  39  82 N17G26    30.03R
JAMESTOWN      MOCLDY    61  46  59 SW10      30.05R
WELLSVILLE     CLOUDY    62  47  57 W9        30.06R
ROCHESTER      CLOUDY    44  38  79 NE10      30.08R
PENN YAN       LGT RAIN  47  42  83 E3        30.04R
$$

             KEY
       WCI = WIND CHILL INDEX
       VSB = VISIBILITY
       HX  = HEAT INDEX
$$



USA.gov is the U.S. government's official web portal to all federal, state and local government web resources and services.